Wetterstats.de || Aktuelle Messwerte || Aktuelle Wetterkarten NEU! || Radar / Satellit NEU! || Wetterarchiv UPDATE! || Klim. Kenntage || Met. Ereignisse || Agrarwerte || Echtzeitwerte

Monatsübersicht für April 2020 Diagramm
 
Wetter Information zur Wetteranzeige
Zeitraffer
Tageslänge (hh:mm)
Höchsttemperatur in °C
Uhrzeit
Tiefsttemperatur in °C
Uhrzeit
Luftfeuchte (max., in %)
Uhrzeit
Luftfeuchte (min., in %)
Uhrzeit
Luftdruck (max., in hPa)
Uhrzeit
Luftdruck (min., in hPa)
Uhrzeit
Luftdruck (Ø, in hPa)
Regenrate (max, mm/h)
Uhrzeit
Niederschlag in mm
Verdunstung in mm
Solar in W/m² (Ø)
Solar in W/m² (max.)
UV-Index (max.)
Sonnenscheindauer (hh:mm)
Windrichtung (Ø)
Windstärke (Ø in km/h)
Windstärke (Ø in bft)
Windböe (max., in km/h)
Uhrzeit
Windböe (max., in bft)
Uhrzeit
Taupunkt (max., in °C)
Uhrzeit
Taupunkt (min., in °C)
Uhrzeit
Windchill (min., in °C)
Uhrzeit
Gewitterindex (max.)
Uhrzeit
Waldbrandindex (max.)
Uhrzeit
Graslandfeuerindex (max.)
Uhrzeit
Staubsturm-Index (max.)
Uhrzeit
01
Zeitraffer
13:05
10.4
16:25 Uhr
-3.4
05:35 Uhr

75
05:30 Uhr
38
16:25 Uhr
1027.3
00:00 Uhr

1015.2
23:45 Uhr
1020.8
0,000
00:00 Uhr
0,000
3.023
365
647
13:30 Uhr
3.4
12:40 Uhr

09:54:00
7,1
2
37,0
14:25 Uhr

5
-0.3
23:50 Uhr
-7.2
05:35 Uhr
-4.0
08:10 Uhr
0
00:00 Uhr
5.1
16:00 Uhr
5.9
00:00 Uhr
3.6
11:15 Uhr
02
Zeitraffer
13:09
11.2
16:55 Uhr
3.9
02:30 Uhr

79
07:40 Uhr
40
16:55 Uhr
1015.2
00:00 Uhr

1006.3
23:55 Uhr
1011.2
0,000
00:00 Uhr
0,000
2.337
212
562
15:55 Uhr
2.7
12:05 Uhr

04:03:00
8,9
2
30,6
12:05 Uhr

5
2.2
10:00 Uhr
-2.3
16:05 Uhr
0.6
09:00 Uhr
0
00:00 Uhr
5.9
16:20 Uhr
5.9
00:00 Uhr
3.6
12:10 Uhr
03
Zeitraffer
13:14
11.6
16:00 Uhr
4.6
22:30 Uhr

76
04:35 Uhr
33
17:00 Uhr
1018.9
23:55 Uhr

1005.7
02:45 Uhr
1011.8
0,000
00:00 Uhr
0,000
3.454
344
883
13:40 Uhr
4.0
13:35 Uhr

08:08:00
11,2
2
40,2
09:55 Uhr

5
2.5
04:35 Uhr
-4.7
17:00 Uhr
-3.5
08:15 Uhr
0
00:00 Uhr
5.9
12:35 Uhr
5.9
00:00 Uhr
4.2
09:55 Uhr
04
Zeitraffer
13:17
16.1
18:30 Uhr
3.2
23:45 Uhr

67
23:45 Uhr
27
18:25 Uhr
1029.6
23:55 Uhr

1019.0
00:00 Uhr
1025.1
0,000
00:00 Uhr
0,000
3.276
366
829
13:10 Uhr
3.9
13:05 Uhr

08:58:00
3,4
1
25,7
11:35 Uhr

4
-0.4
08:55 Uhr
-3.9
18:40 Uhr
3.2
23:45 Uhr
0
00:00 Uhr
5.9
09:50 Uhr
5.9
00:00 Uhr
2.9
13:35 Uhr
05
Zeitraffer
13:21
16.8
15:35 Uhr
1.1
04:40 Uhr

77
04:45 Uhr
30
16:25 Uhr
1032.2
09:40 Uhr

1026.2
23:25 Uhr
1029.6
0,000
00:00 Uhr
0,000
4.013
377
662
13:00 Uhr
3.9
12:40 Uhr

10:41:00
7,6
2
30,6
11:10 Uhr

5
1.5
11:55 Uhr
-2.8
04:25 Uhr
1.1
04:40 Uhr
0
00:00 Uhr
5.9
09:00 Uhr
5.9
00:00 Uhr
3.5
12:05 Uhr
06
Zeitraffer
13:26
22.9
16:25 Uhr
4.6
06:25 Uhr

61
06:25 Uhr
22
15:05 Uhr
1026.2
00:00 Uhr

1023.1
17:05 Uhr
1024.4
0,000
00:00 Uhr
0,000
4.394
384
676
13:05 Uhr
4.4
12:50 Uhr

10:44:00
6,7
1
30,6
15:20 Uhr

5
3.1
20:25 Uhr
-2.3
06:20 Uhr
3.8
07:00 Uhr
0
00:00 Uhr
5.9
00:00 Uhr
5.9
00:00 Uhr
3.4
15:20 Uhr
07
Zeitraffer
13:30
22.1
14:30 Uhr
5.4
06:00 Uhr

73
06:00 Uhr
38
17:30 Uhr
1032.8
23:00 Uhr

1024.2
00:00 Uhr
1029.4
0,000
00:00 Uhr
0,000
3.785
366
648
13:05 Uhr
4.1
13:05 Uhr

10:35:00
5,4
1
27,4
10:05 Uhr

4
10.5
13:40 Uhr
0.9
05:30 Uhr
5.4
06:00 Uhr
2
13:40 Uhr
5.9
00:00 Uhr
5.9
00:00 Uhr
3.0
10:05 Uhr
08
Zeitraffer
13:33
24.4
17:05 Uhr
6.0
04:25 Uhr

69
05:50 Uhr
24
18:05 Uhr
1032.7
00:00 Uhr

1021.9
23:25 Uhr
1027.9
0,000
00:00 Uhr
0,000
3.734
369
650
13:15 Uhr
3.6
12:50 Uhr

10:42:00
3,9
1
20,9
14:10 Uhr

4
8.8
13:45 Uhr
0.6
03:05 Uhr
6.0
04:25 Uhr
0
00:00 Uhr
5.9
00:00 Uhr
5.9
00:00 Uhr
2.6
08:50 Uhr
09
Zeitraffer
13:37
19.4
15:25 Uhr
6.1
06:05 Uhr

78
06:30 Uhr
41
13:00 Uhr
1026.5
23:50 Uhr

1020.5
04:35 Uhr
1023.0
0,000
00:00 Uhr
0,000
3.607
315
759
11:50 Uhr
4.2
12:30 Uhr

06:47:00
6,1
1
32,2
14:15 Uhr

5
6.4
20:25 Uhr
1.0
23:30 Uhr
6.1
06:05 Uhr
0
00:00 Uhr
5.9
00:00 Uhr
5.9
00:00 Uhr
3.7
14:20 Uhr
10
Zeitraffer
13:42
17.9
15:25 Uhr
2.4
06:20 Uhr

84
06:00 Uhr
29
15:25 Uhr
1027.7
08:00 Uhr

1024.0
18:00 Uhr
1026.1
0,000
00:00 Uhr
0,000
3.480
387
724
13:35 Uhr
4.4
13:30 Uhr

10:53:00
4,2
1
25,7
22:30 Uhr

4
3.2
08:40 Uhr
-1.2
22:10 Uhr
2.4
06:20 Uhr
0
00:00 Uhr
5.9
00:00 Uhr
5.9
00:00 Uhr
2.7
14:25 Uhr
11
Zeitraffer
13:46
18.3
16:00 Uhr
2.1
06:45 Uhr

82
06:40 Uhr
29
16:45 Uhr
1028.6
11:10 Uhr

1023.1
23:45 Uhr
1026.4
0,000
00:00 Uhr
0,000
3.200
380
689
13:25 Uhr
4.4
13:20 Uhr

11:15:00
2,4
1
16,1
15:05 Uhr

3
2.8
11:35 Uhr
-1.8
17:15 Uhr
2.1
06:45 Uhr
0
00:00 Uhr
5.9
00:00 Uhr
5.9
00:00 Uhr
2.1
00:00 Uhr
12
Zeitraffer
13:49
24.2
17:30 Uhr
2.0
06:05 Uhr

83
06:35 Uhr
25
17:20 Uhr
1023.3
00:10 Uhr

1010.1
23:35 Uhr
1016.1
0,000
00:00 Uhr
0,000
3.810
374
691
12:40 Uhr
4.6
12:40 Uhr

09:56:00
3,3
1
40,2
19:30 Uhr

5
7.2
21:25 Uhr
-0.8
06:00 Uhr
2.0
06:05 Uhr
0
00:00 Uhr
5.9
00:00 Uhr
5.9
00:00 Uhr
2.9
19:35 Uhr
13
Zeitraffer
13:54
13.6
01:25 Uhr
4.6
21:55 Uhr

87
07:00 Uhr
28
18:40 Uhr
1017.0
23:55 Uhr

1008.9
03:35 Uhr
1013.5
4,800
06:55 Uhr
2,200
2.692
244
865
13:35 Uhr
4.1
12:40 Uhr

03:38:00
9,6
2
43,5
15:45 Uhr

6
8.7
05:25 Uhr
-8.9
19:20 Uhr
-0.4
10:50 Uhr
0
00:00 Uhr
5.9
00:00 Uhr
5.9
00:00 Uhr
4.2
12:35 Uhr
14
Zeitraffer
13:58
11.1
17:20 Uhr
1.1
06:25 Uhr

81
06:25 Uhr
28
15:40 Uhr
1023.0
21:20 Uhr

1017.0
00:00 Uhr
1020.9
0,000
00:00 Uhr
0,000
3.353
377
967
12:45 Uhr
4.9
13:30 Uhr

09:43:00
10,5
2
38,6
14:25 Uhr

5
-0.7
08:45 Uhr
-7.1
17:10 Uhr
-3.7
05:10 Uhr
0
00:00 Uhr
5.9
00:00 Uhr
5.9
00:00 Uhr
3.9
15:35 Uhr
15
Zeitraffer
14:02
15.9
18:05 Uhr
4.7
06:00 Uhr

73
07:00 Uhr
36
17:05 Uhr
1022.9
00:20 Uhr

1019.2
23:55 Uhr
1021.5
0,000
00:00 Uhr
0,000
3.480
326
791
13:35 Uhr
4.8
13:35 Uhr

08:06:00
10,6
2
45,1
11:40 Uhr

6
2.5
12:35 Uhr
-1.5
00:20 Uhr
-1.5
09:00 Uhr
0
00:00 Uhr
5.9
00:00 Uhr
5.9
00:00 Uhr
4.2
11:05 Uhr


 
Wetter Information zur Wetteranzeige
Zeitraffer
Tageslänge (hh:mm)
Höchsttemperatur in °C
Uhrzeit
Tiefsttemperatur in °C
Uhrzeit
Luftfeuchte (max., in %)
Uhrzeit
Luftfeuchte (min., in %)
Uhrzeit
Luftdruck (max., in hPa)
Uhrzeit
Luftdruck (min., in hPa)
Uhrzeit
Luftdruck (Ø, in hPa)
Regenrate (max, mm/h)
Uhrzeit
Niederschlag in mm
Verdunstung in mm
Solar in W/m² (Ø)
Solar in W/m² (max.)
UV-Index (max.)
Sonnenscheindauer (hh:mm)
Windrichtung (Ø)
Windstärke (Ø in km/h)
Windstärke (Ø in bft)
Windböe (max., in km/h)
Uhrzeit
Windböe (max., in bft)
Uhrzeit
Taupunkt (max., in °C)
Uhrzeit
Taupunkt (min., in °C)
Uhrzeit
Windchill (min., in °C)
Uhrzeit
Gewitterindex (max.)
Uhrzeit
Waldbrandindex (max.)
Uhrzeit
Graslandfeuerindex (max.)
Uhrzeit
Staubsturm-Index (max.)
Uhrzeit
16
Zeitraffer
14:05
19.3
16:40 Uhr
4.1
06:05 Uhr

72
06:10 Uhr
31
14:55 Uhr
1019.3
00:00 Uhr

1014.4
19:35 Uhr
1016.9
0,000
00:00 Uhr
0,000
3.962
375
715
12:40 Uhr
4.5
12:40 Uhr

10:50:00
6,4
1
30,6
11:50 Uhr

5
6.0
21:20 Uhr
-0.7
06:05 Uhr
3.1
07:50 Uhr
0
00:00 Uhr
5.9
00:00 Uhr
5.9
00:00 Uhr
3.3
11:55 Uhr
17
Zeitraffer
14:09
21.3
16:05 Uhr
5.0
05:50 Uhr

83
05:25 Uhr
29
14:45 Uhr
1018.7
08:55 Uhr

1016.2
00:00 Uhr
1017.6
0,000
00:00 Uhr
0,000
3.810
382
749
12:25 Uhr
4.6
12:55 Uhr

11:00:00
4,0
1
20,9
13:50 Uhr

4
5.2
09:50 Uhr
-0.5
21:30 Uhr
5.0
05:50 Uhr
0
00:00 Uhr
5.9
00:00 Uhr
5.9
00:00 Uhr
2.8
23:25 Uhr
18
Zeitraffer
14:14
20.2
13:50 Uhr
3.6
06:00 Uhr

62
06:00 Uhr
23
13:50 Uhr
1019.6
08:20 Uhr

1016.5
19:00 Uhr
1018.3
0,000
00:00 Uhr
0,000
4.445
409
723
13:00 Uhr
5.2
12:55 Uhr

11:45:00
6,7
1
30,6
22:40 Uhr

5
0.7
12:20 Uhr
-5.0
21:25 Uhr
3.6
06:00 Uhr
0
00:00 Uhr
5.9
00:00 Uhr
5.9
00:00 Uhr
3.2
22:05 Uhr
19
Zeitraffer
14:18
14.4
14:35 Uhr
5.9
05:55 Uhr

57
23:50 Uhr
27
15:30 Uhr
1025.5
23:45 Uhr

1018.3
00:00 Uhr
1022.0
0,000
00:00 Uhr
0,000
4.750
412
729
13:10 Uhr
4.5
13:00 Uhr

11:12:00
10,7
2
33,8
09:20 Uhr

5
-0.5
23:00 Uhr
-5.3
09:20 Uhr
-0.5
06:10 Uhr
0
00:00 Uhr
5.9
00:00 Uhr
5.9
00:00 Uhr
4.0
09:25 Uhr
20
Zeitraffer
14:21
15.6
15:10 Uhr
4.1
06:15 Uhr

66
06:15 Uhr
23
15:35 Uhr
1027.7
08:45 Uhr

1024.5
18:00 Uhr
1026.1
0,000
00:00 Uhr
0,000
4.750
412
729
13:05 Uhr
4.6
13:10 Uhr

11:46:00
10,1
2
35,4
14:30 Uhr

5
0.4
23:10 Uhr
-5.8
15:35 Uhr
1.3
06:00 Uhr
0
00:00 Uhr
5.9
00:00 Uhr
5.9
00:00 Uhr
4.0
14:30 Uhr
21
Zeitraffer
14:25
17.7
16:45 Uhr
5.4
06:00 Uhr

65
04:35 Uhr
32
16:45 Uhr
1027.1
08:25 Uhr

1024.8
18:40 Uhr
1026.1
0,000
00:00 Uhr
0,000
4.902
408
723
12:55 Uhr
4.7
12:50 Uhr

11:43:00
11,0
2
40,2
10:55 Uhr

5
1.9
13:35 Uhr
-0.7
06:00 Uhr
0.7
06:55 Uhr
0
00:00 Uhr
5.9
00:00 Uhr
5.9
00:00 Uhr
4.4
11:15 Uhr
22
Zeitraffer
14:29
20.2
16:00 Uhr
6.1
05:55 Uhr

73
05:55 Uhr
31
16:00 Uhr
1027.5
08:05 Uhr

1023.9
19:00 Uhr
1025.9
0,000
00:00 Uhr
0,000
4.750
410
733
13:00 Uhr
4.9
12:50 Uhr

11:44:00
7,9
2
32,2
14:00 Uhr

5
4.0
14:00 Uhr
0.1
00:10 Uhr
3.2
07:00 Uhr
0
00:00 Uhr
5.9
00:00 Uhr
5.9
00:00 Uhr
3.3
12:10 Uhr
23
Zeitraffer
14:33
25.3
17:05 Uhr
5.7
06:25 Uhr

76
06:25 Uhr
26
16:40 Uhr
1025.8
07:15 Uhr

1016.4
23:35 Uhr
1022.6
0,000
00:00 Uhr
0,000
4.369
413
735
13:00 Uhr
5.4
12:40 Uhr

11:46:00
3,3
1
22,5
13:45 Uhr

4
5.0
21:00 Uhr
1.8
05:00 Uhr
5.7
06:25 Uhr
0
00:00 Uhr
5.9
00:00 Uhr
5.9
00:00 Uhr
2.5
13:50 Uhr
24
Zeitraffer
14:37
22.3
14:15 Uhr
6.2
06:15 Uhr

81
05:30 Uhr
25
18:35 Uhr
1016.2
00:00 Uhr

1005.2
19:15 Uhr
1009.1
0,000
00:00 Uhr
0,000
4.775
363
758
09:55 Uhr
4.7
12:50 Uhr

08:19:00
7,7
2
40,2
17:15 Uhr

5
6.1
09:45 Uhr
-3.7
22:50 Uhr
6.2
06:15 Uhr
0
00:00 Uhr
5.9
00:00 Uhr
5.9
00:00 Uhr
4.0
16:55 Uhr
25
Zeitraffer
14:41
17.7
14:40 Uhr
7.8
01:45 Uhr

75
07:55 Uhr
33
14:40 Uhr
1011.5
13:10 Uhr

1005.9
00:00 Uhr
1009.5
0,000
00:00 Uhr
0,000
3.099
280
1020
12:25 Uhr
5.0
13:00 Uhr

02:37:00
8,6
2
33,8
00:45 Uhr

5
4.9
09:25 Uhr
0.0
00:05 Uhr
0.7
06:55 Uhr
0
00:00 Uhr
5.9
00:00 Uhr
5.9
00:00 Uhr
3.8
01:10 Uhr
26
Zeitraffer
14:45
19.7
15:30 Uhr
4.9
06:20 Uhr

83
06:45 Uhr
30
15:30 Uhr
1012.6
11:20 Uhr

1009.9
19:50 Uhr
1011.1
0,000
00:00 Uhr
0,000
3.327
325
983
12:45 Uhr
5.1
12:45 Uhr

07:38:00
2,8
1
22,5
15:55 Uhr

4
4.3
08:35 Uhr
0.1
10:55 Uhr
4.9
06:20 Uhr
0
00:00 Uhr
5.9
00:00 Uhr
5.9
00:00 Uhr
2.4
17:25 Uhr
27
Zeitraffer
14:49
22.9
15:30 Uhr
3.3
06:00 Uhr

85
06:00 Uhr
26
16:35 Uhr
1010.3
00:00 Uhr

1005.4
23:45 Uhr
1008.3
0,000
00:00 Uhr
0,000
4.293
397
816
13:35 Uhr
4.7
12:55 Uhr

10:59:00
3,8
1
30,6
15:15 Uhr

5
5.9
10:05 Uhr
1.0
05:50 Uhr
3.3
06:00 Uhr
0
00:00 Uhr
5.9
00:00 Uhr
5.9
00:00 Uhr
3.2
15:20 Uhr
28
Zeitraffer
14:52
26.6
15:05 Uhr
7.3
06:05 Uhr

78
05:50 Uhr
27
14:50 Uhr
1005.6
00:00 Uhr

1002.4
18:35 Uhr
1004.0
0,000
00:00 Uhr
0,000
3.683
330
755
14:05 Uhr
4.5
12:35 Uhr

07:59:00
4,3
1
25,7
23:00 Uhr

4
10.8
21:00 Uhr
3.8
05:20 Uhr
7.3
06:05 Uhr
3
21:10 Uhr
5.9
00:00 Uhr
5.9
00:00 Uhr
3.0
23:15 Uhr
29
Zeitraffer
14:56
19.7
16:00 Uhr
8.0
05:30 Uhr

94
21:40 Uhr
54
16:00 Uhr
1006.9
23:50 Uhr

1002.4
04:40 Uhr
1004.6
28,800
17:30 Uhr
11,000
1.854
209
829
12:35 Uhr
4.8
12:35 Uhr

02:48:00
4,0
1
37,0
17:20 Uhr

5
13.0
18:05 Uhr
5.9
02:25 Uhr
5.4
04:30 Uhr
3
18:05 Uhr
5.9
00:00 Uhr
5.9
00:00 Uhr
3.0
17:25 Uhr
30
Zeitraffer
15:00
18.7
18:05 Uhr
8.7
02:35 Uhr

96
02:05 Uhr
57
18:50 Uhr
1006.9
00:20 Uhr

1002.3
22:50 Uhr
1004.4
2,400
09:15 Uhr
0,400
2.261
228
999
12:20 Uhr
5.4
12:20 Uhr

04:34:00
5,5
1
33,8
14:30 Uhr

5
12.0
15:50 Uhr
8.0
02:35 Uhr
8.7
02:35 Uhr
3
21:10 Uhr
4.7
18:45 Uhr
5.9
01:35 Uhr
3.1
15:25 Uhr
Stationsstandorte || Wetterblog || Wissenswertes || Downloads || Seiten-Historie || Partner || Impressum / Datenschutz